sat.trackr.live / text

‹ back to catalog

STARLINK-31208

NORAD 59037 · 2024-038Q

PAYLOAD ACTIVE UNKNOWN

§ Identity

Operator
Country
US
Launch date
2024-02-25
Launch site
AFETR
Launch vehicle
Mass (kg)
RCS (m²)

Purposes: comms

External: N2YO · Heavens-Above · Gunter

§ Orbital elements

Epoch: 2026-09-20T14:46:25.905504Z

Period
94.27 min
Inclination
43.0047°
Eccentricity
0.0001233
Mean motion
15.27577963 rev/d
Perigee alt
482.2 km
Apogee alt
483.9 km
Semi-major
6,861.2 km
B*
7.3182e-6
RAAN
6.6539°
Arg perigee
261.3194°
Mean anomaly
98.7518°
Rev number
14,462

§ Raw data

STARLINK-312081 59037U 24038Q   26263.61557761 -.00000061  00000+0  73182-5 0  99912 59037  43.0047   6.6539 0001233 261.3194  98.7518 15.27577963144625

JSON: /api/v1/satellites/59037 · /tle

For live sub-satellite position, see the globe view (requires WebGL).

§ Visibility from observer

Set your observer location to see the next 7 days of passes ≥ 10°. The values pass through the URL so the page stays shareable.

No JS? Fill the form by hand. The geolocation button needs JavaScript.